Hourly Weather Bolshie Smenki

Today, 16 June, Wednesday

Time Temperature Precipitation Wind Pressure Humidity
00:00 +14°C° 0 mm 3 mps 744 mmHg 80%
01:00 +14°C° 0 mm 2 mps 744 mmHg 86%
02:00 +14°C° 0 mm 2 mps 744 mmHg 93%
03:00 +14°C° 0 mm 2 mps 745 mmHg 93%
04:00 +15°C° 0 mm 2 mps 745 mmHg 92%
05:00 +16°C° 0 mm 2 mps 745 mmHg 92%
06:00 +17°C° 0 mm 3 mps 745 mmHg 80%
07:00 +18°C° 0 mm 3 mps 745 mmHg 67%
08:00 +19°C° 0 mm 4 mps 746 mmHg 54%
09:00 +20°C° 0 mm 4 mps 746 mmHg 49%
10:00 +21°C° 0 mm 4 mps 746 mmHg 44%
11:00 +21°C° 0 mm 4 mps 747 mmHg 39%
12:00 +22°C° 0 mm 5 mps 747 mmHg 39%
13:00 +22°C° 0 mm 5 mps 747 mmHg 38%
14:00 +22°C° 0 mm 5 mps 747 mmHg 38%
15:00 +22°C° 0 mm 4 mps 747 mmHg 41%
16:00 +22°C° 0 mm 4 mps 747 mmHg 45%
17:00 +21°C° 0 mm 4 mps 748 mmHg 49%
18:00 +19°C° 0 mm 3 mps 748 mmHg 55%
19:00 +17°C° 0 mm 3 mps 748 mmHg 60%
20:00 +15°C° 0 mm 2 mps 749 mmHg 66%
21:00 +15°C° 0 mm 2 mps 749 mmHg 65%
22:00 +14°C° 0 mm 2 mps 750 mmHg 64%
23:00 +12°C° 0 mm 3 mps 750 mmHg 63%

Tomorrow, 17 June, Thursday

Time Temperature Precipitation Wind Pressure Humidity
00:00 +12°C° 0 mm 2 mps 751 mmHg 64%
01:00 +10°C° 0 mm 2 mps 751 mmHg 65%
02:00 +10°C° 0 mm 2 mps 752 mmHg 65%
03:00 +12°C° 0 mm 2 mps 752 mmHg 66%
04:00 +12°C° 0 mm 2 mps 752 mmHg 66%
05:00 +13°C° 0 mm 2 mps 753 mmHg 66%
06:00 +15°C° 0 mm 2 mps 753 mmHg 61%
07:00 +17°C° 0 mm 2 mps 753 mmHg 56%
08:00 +18°C° 0 mm 2 mps 754 mmHg 51%
09:00 +20°C° 0 mm 2 mps 754 mmHg 49%
10:00 +21°C° 0 mm 3 mps 754 mmHg 46%
11:00 +22°C° 0 mm 3 mps 754 mmHg 44%
12:00 +22°C° 0 mm 3 mps 754 mmHg 43%
13:00 +24°C° 0 mm 3 mps 754 mmHg 42%
14:00 +25°C° 0 mm 4 mps 754 mmHg 40%
15:00 +25°C° 0 mm 3 mps 754 mmHg 44%
16:00 +25°C° 0 mm 3 mps 754 mmHg 48%
17:00 +25°C° 0 mm 2 mps 754 mmHg 52%
18:00 +23°C° 0 mm 2 mps 754 mmHg 58%
19:00 +20°C° 0 mm 2 mps 754 mmHg 64%
20:00 +18°C° 0 mm 2 mps 754 mmHg 70%
21:00 +17°C° 0 mm 2 mps 755 mmHg 71%
22:00 +16°C° 0 mm 1 mps 755 mmHg 71%
23:00 +15°C° 0 mm 1 mps 755 mmHg 71%

Day after tomorrow, 18 June, Friday

Time Temperature Precipitation Wind Pressure Humidity
00:00 +15°C° 0 mm 1 mps 755 mmHg 72%
01:00 +14°C° 0 mm 1 mps 755 mmHg 72%
02:00 +14°C° 0 mm 1 mps 756 mmHg 73%
03:00 +14°C° 0 mm 1 mps 756 mmHg 72%
04:00 +15°C° 0 mm 1 mps 756 mmHg 72%
05:00 +16°C° 0 mm 1 mps 756 mmHg 71%
06:00 +19°C° 0 mm 1 mps 756 mmHg 66%
07:00 +21°C° 0 mm 1 mps 756 mmHg 61%
08:00 +23°C° 0 mm 2 mps 756 mmHg 56%
09:00 +24°C° 0 mm 2 mps 756 mmHg 53%
10:00 +25°C° 0 mm 2 mps 756 mmHg 50%
11:00 +26°C° 0 mm 3 mps 756 mmHg 47%
12:00 +27°C° 0 mm 3 mps 756 mmHg 47%
13:00 +27°C° 0 mm 3 mps 755 mmHg 46%
14:00 +28°C° 0 mm 3 mps 755 mmHg 45%
15:00 +28°C° 0 mm 3 mps 755 mmHg 49%
16:00 +27°C° 0 mm 3 mps 754 mmHg 52%
17:00 +27°C° 0 mm 3 mps 754 mmHg 56%
18:00 +25°C° 0 mm 3 mps 754 mmHg 63%
19:00 +22°C° 0 mm 3 mps 754 mmHg 70%
20:00 +21°C° 0 mm 3 mps 754 mmHg 76%
21:00 +20°C° 0 mm 3 mps 754 mmHg 77%
22:00 +19°C° 0 mm 3 mps 754 mmHg 78%
23:00 +18°C° 0 mm 3 mps 755 mmHg 80%

19 June, Saturday

Time Temperature Precipitation Wind Pressure Humidity
00:00 +17°C° 0 mm 3 mps 755 mmHg 83%
01:00 +17°C° 0 mm 3 mps 755 mmHg 86%
02:00 +16°C° 0 mm 3 mps 755 mmHg 90%
03:00 +17°C° 0 mm 3 mps 755 mmHg 87%
04:00 +18°C° 0 mm 3 mps 755 mmHg 85%
05:00 +19°C° 0 mm 3 mps 755 mmHg 82%
06:00 +20°C° 0 mm 3 mps 755 mmHg 76%
07:00 +22°C° 0 mm 4 mps 755 mmHg 69%
08:00 +25°C° 0 mm 4 mps 755 mmHg 63%
09:00 +26°C° 0 mm 4 mps 755 mmHg 59%
10:00 +27°C° 0 mm 4 mps 755 mmHg 55%
11:00 +28°C° 0 mm 4 mps 755 mmHg 51%
12:00 +29°C° 0 mm 4 mps 755 mmHg 49%
13:00 +29°C° 0 mm 4 mps 755 mmHg 47%
14:00 +30°C° 0 mm 4 mps 754 mmHg 46%
15:00 +29°C° 0 mm 4 mps 754 mmHg 49%
16:00 +29°C° 0 mm 3 mps 754 mmHg 52%
17:00 +29°C° 0 mm 3 mps 754 mmHg 55%
18:00 +27°C° 0 mm 3 mps 754 mmHg 61%
19:00 +25°C° 0 mm 3 mps 754 mmHg 68%
20:00 +22°C° 0 mm 3 mps 754 mmHg 74%
21:00 +21°C° 0 mm 3 mps 754 mmHg 78%
22:00 +20°C° 0 mm 2 mps 754 mmHg 81%
23:00 +19°C° 0 mm 2 mps 754 mmHg 85%

20 June, Sunday

Time Temperature Precipitation Wind Pressure Humidity
00:00 +18°C° 0 mm 2 mps 754 mmHg 87%
01:00 +18°C° 0 mm 2 mps 754 mmHg 89%
02:00 +17°C° 0 mm 2 mps 755 mmHg 91%
03:00 +18°C° 0 mm 2 mps 755 mmHg 88%
04:00 +19°C° 0 mm 2 mps 755 mmHg 85%
05:00 +20°C° 0 mm 2 mps 755 mmHg 83%
06:00 +23°C° 0 mm 2 mps 755 mmHg 76%
07:00 +24°C° 0 mm 2 mps 755 mmHg 69%
08:00 +26°C° 0 mm 2 mps 755 mmHg 63%
09:00 +27°C° 0 mm 2 mps 754 mmHg 59%
10:00 +28°C° 0 mm 3 mps 754 mmHg 56%
11:00 +29°C° 0 mm 3 mps 754 mmHg 52%
12:00 +30°C° 0 mm 3 mps 754 mmHg 50%
13:00 +30°C° 0 mm 3 mps 754 mmHg 48%
14:00 +30°C° 0 mm 4 mps 753 mmHg 46%
15:00 +30°C° 0 mm 3 mps 753 mmHg 49%
16:00 +29°C° 0 mm 3 mps 753 mmHg 52%
17:00 +29°C° 0 mm 3 mps 753 mmHg 55%
18:00 +27°C° 0 mm 3 mps 753 mmHg 61%
19:00 +25°C° 0 mm 3 mps 752 mmHg 67%
20:00 +22°C° 0 mm 3 mps 752 mmHg 73%
21:00 +21°C° 0 mm 3 mps 752 mmHg 75%
22:00 +20°C° 0 mm 3 mps 752 mmHg 77%
23:00 +19°C° 0 mm 3 mps 752 mmHg 79%

21 June, Monday

Time Temperature Precipitation Wind Pressure Humidity
00:00 +19°C° 0 mm 3 mps 752 mmHg 81%
01:00 +18°C° 0 mm 3 mps 752 mmHg 83%
02:00 +18°C° 0 mm 3 mps 752 mmHg 85%
03:00 +18°C° 0 mm 2 mps 752 mmHg 84%
04:00 +19°C° 0 mm 2 mps 752 mmHg 83%
05:00 +19°C° 0 mm 2 mps 752 mmHg 82%
06:00 +21°C° 0 mm 2 mps 752 mmHg 75%
07:00 +24°C° 0 mm 2 mps 752 mmHg 69%
08:00 +26°C° 0 mm 3 mps 752 mmHg 62%
09:00 +27°C° 0 mm 3 mps 752 mmHg 58%
10:00 +28°C° 0 mm 3 mps 752 mmHg 53%
11:00 +29°C° 0 mm 3 mps 752 mmHg 49%
12:00 +29°C° 0 mm 3 mps 752 mmHg 47%
13:00 +30°C° 0 mm 3 mps 752 mmHg 44%
14:00 +30°C° 0 mm 3 mps 752 mmHg 41%
15:00 +30°C° 0 mm 3 mps 751 mmHg 45%
16:00 +30°C° 0 mm 2 mps 751 mmHg 48%
17:00 +30°C° 0 mm 2 mps 751 mmHg 51%
18:00 +28°C° 0 mm 2 mps 751 mmHg 57%
19:00 +26°C° 0 mm 2 mps 751 mmHg 63%
20:00 +24°C° 0 mm 2 mps 751 mmHg 68%
21:00 +23°C° 0 mm 2 mps 751 mmHg 69%
22:00 +21°C° 0 mm 2 mps 751 mmHg 70%
23:00 +20°C° 0 mm 2 mps 751 mmHg 71%
Show more